Overview Statistics Trail Chart Weather Telemetry Raw packets
 

This is the latest recevied weather packets stored in our database for station/object G4KVI. If no packets are shown the sender has not sent any weather packets the latest 10 day(s).

<< 101 102 103 104 105 106 107 >>
Time Temp. Humidity Pressure Rain* Wind** Luminosity Snow
1787836504 25.56° C 56% 1009 hPa 0 mm - 596 W/m² -
1787836209 25° C 57% 1008.8 hPa 0 mm - 682 W/m² -
1787835904 25° C 57% 1009.1 hPa 0 mm - 589 W/m² -
1787835604 25° C 57% 1009.1 hPa 0 mm - 675 W/m² -
1787835304 24.44° C 62% 1009 hPa 0 mm - 764 W/m² -
1787835004 24.44° C 65% 1009.2 hPa 0 mm - 271 W/m² -
1787834704 23.89° C 65% 1009.1 hPa 0 mm - 458 W/m² -
1787834404 23.89° C 65% 1009.1 hPa 0 mm - 611 W/m² -
1787834104 23.89° C 65% 1009 hPa 0 mm - 337 W/m² -
1787833804 23.89° C 66% 1008.9 hPa 0 mm - 201 W/m² -
1787833504 23.89° C 66% 1008.8 hPa 0 mm - 242 W/m² -
1787833204 24.44° C 64% 1008.9 hPa 0 mm - 180 W/m² -
1787832904 25° C 63% 1008.9 hPa 0 mm - 281 W/m² -
1787832604 24.44° C 64% 1009 hPa 0 mm - 867 W/m² -
1787832304 24.44° C 66% 1008.7 hPa 0 mm - 882 W/m² -
1787832004 23.89° C 66% 1008.6 hPa 0 mm - 479 W/m² -
1787831704 24.44° C 66% 1009 hPa 0 mm - 192 W/m² -
1787831404 24.44° C 68% 1008.7 hPa 0 mm - 274 W/m² -
1787831104 24.44° C 67% 1009.1 hPa 0 mm - 215 W/m² -
1787830804 23.89° C 69% 1008.8 hPa 0 mm - 823 W/m² -
1787830509 23.89° C 67% 1009 hPa 0 mm - 234 W/m² -
1787830208 23.33° C 68% 1009 hPa 0 mm - 362 W/m² -
1787829904 23.89° C 68% 1009.1 hPa 0 mm - 778 W/m² -
1787829604 23.89° C 69% 1009.2 hPa 0 mm - 816 W/m² -
1787829304 23.89° C 73% 1009 hPa 0 mm - 813 W/m² -

* Rain latest hour (hover to see other rain measurements)
** Current wind speed in m/s (hover to see current wind gust speed)